[[{"header":{"parameterUnit":"m.s-1","parameterCategory":1,"la1":30.2991,"la2":30.254,"lo1":-89.0895,"lo2":-89.0444,"dy":0.0017,"dx":0.0017,"nx":28,"ny":28,"refTime":"2024-03-02T09:00:00:Z","depth":0,"parameterNumber":2,"parameterNumberName":"U-component_of_WINDS"},"data":[0,0,0,0,0,0,0,0,0,0,0,0,0,0,0,0,0,0,0,0,0,0,0,0,0,0,0,0,0,0,0,0,0,0,0,0,0,0,0,0,0,0,0,0,0,0,0,0,0,0,0,0,0,0,0,0,0,0,-4.2762,-4.2762,0,-4.2796,-4.2796,-4.2796,-4.2718,-4.2715,-4.2712,-4.271,-4.2745,-4.2748,-4.2751,0,0,0,0,0,0,0,0,0,0,0,0,0,-4.2629,-4.2632,-4.2761,-4.2762,-4.2762,-4.2796,-4.2796,-4.2796,-4.2718,-4.2715,-4.2712,-4.2709,-4.2744,-4.2747,-4.2751,0,0,0,0,0,0,0,0,0,0,0,0,0,-4.2677,-4.2633,-4.2761,-4.2727,-4.2724,-4.2795,-4.2796,-4.2797,-4.2719,-4.2715,-4.2711,-4.2708,-4.2742,-4.2747,-4.2752,-4.2857,0,0,-4.2767,-4.2769,0,0,0,0,0,0,0,0,-4.2675,-4.2682,-4.2732,-4.273,-4.2727,-4.2748,-4.2762,-4.2817,-4.272,-4.2721,-4.271,-4.2706,-4.2749,-4.2753,-4.2768,-4.2859,-4.2861,-4.2767,-4.277,-4.2772,-4.2774,0,0,0,0,0,0,0,-4.2671,-4.268,-4.2775,-4.2733,-4.273,-4.271,-4.2713,-4.2772,-4.2756,-4.272,-4.2715,-4.272,-4.2747,-4.2763,-4.2768,-4.2861,-4.2767,-4.2771,-4.2774,-4.2776,-4.3042,-4.3046,0,0,0,0,0,0,-4.2672,-4.2678,-4.2774,-4.2776,-4.2691,-4.2716,-4.2719,-4.2745,-4.2755,-4.2753,-4.2723,-4.2716,-4.2757,-4.2762,-4.2769,-4.2893,-4.2772,-4.2777,-4.278,-4.3038,-4.3043,-4.3047,0,0,0,0,0,0,-4.267,-4.2682,-4.2772,-4.2726,-4.2736,-4.2722,-4.2752,-4.2748,-4.2764,-4.2757,-4.2753,-4.2743,-4.2754,-4.2762,-4.2836,-4.2893,-4.2779,-4.2784,-4.3033,-4.3039,-4.3045,-4.3143,0,0,0,0,0,0,-4.2666,-4.2681,-4.2721,-4.2727,-4.2738,-4.2839,-4.2756,-4.2751,-4.2773,-4.2764,-4.2774,-4.2772,-4.2752,-4.2829,-4.2841,-4.2898,-4.2787,-4.3028,-4.3036,-4.3043,-4.3134,-4.3151,-4.3166,0,0,0,0,0,-4.2662,-4.2747,-4.2723,-4.2735,-4.2788,-4.2843,-4.2849,-4.2824,-4.2778,-4.2818,-4.2813,-4.2772,-4.2886,-4.2838,-4.285,-4.2909,-4.3024,-4.3034,-4.3043,-4.3127,-4.3148,-4.3166,0,0,0,0,0,0,-4.2747,-4.2747,-4.2721,-4.281,-4.2827,-4.2829,-4.2878,-4.2846,-4.2877,-4.2867,-4.2834,-4.2837,-4.2918,-4.2921,-4.2868,-4.3013,-4.2947,-4.2959,-4.3007,-4.3027,-4.3043,-4.3039,-4.2791,0,0,0,0,0,-4.2776,-4.2821,-4.2818,-4.2897,-4.2907,-4.2892,-4.2915,-4.2894,-4.291,-4.2917,-4.2918,-4.2935,-4.2975,-4.3001,-4.3037,-4.3135,-4.3136,-4.3182,-4.3198,-4.3211,-4.3222,-4.3274,-4.3295,-4.3078,-4.3078,-4.3077,0,0,-4.2836,-4.2842,-4.2872,-4.2915,-4.2925,-4.2972,-4.2898,-4.2951,-4.2986,-4.2925,-4.2995,-4.2997,-4.3014,-4.3101,-4.3139,-4.3106,-4.3282,-4.3223,-4.3234,-4.3237,-4.3286,-4.3307,-4.3325,-4.3084,-4.3083,-4.3082,0,0,-4.297,-4.2979,-4.3046,-4.3059,-4.3077,-4.3066,-4.3083,-4.309,-4.3089,-4.3159,-4.3115,-4.3156,-4.3225,-4.3239,-4.3256,-4.3398,-4.3361,-4.3411,-4.3493,-4.3545,-4.3562,-4.3577,-4.3628,-4.3646,-4.3422,-4.3422,-4.3422,0,-4.3043,-4.3112,-4.3084,-4.3141,-4.3161,-4.3109,-4.3177,-4.3191,-4.322,-4.3235,-4.3198,-4.3284,-4.3292,-4.3382,-4.3417,-4.3432,-4.3449,-4.3408,-4.3562,-4.3577,-4.359,-4.3638,-4.3657,-4.3428,-4.3427,-4.3427,-4.3426,0,-4.32,-4.3249,-4.3301,-4.3331,-4.3357,-4.3419,-4.3401,-4.3432,-4.341,-4.3403,-4.3476,-4.3485,-4.3522,-4.3542,-4.352,-4.3629,-4.3608,-4.3568,-4.35,-4.3617,-4.3662,-4.368,-4.3436,-4.3434,-4.3432,-4.3431,0,0,-4.3385,-4.3401,-4.342,-4.3434,-4.3451,-4.3488,-4.3549,-4.3585,-4.3612,-4.3634,-4.3684,-4.3745,-4.3707,-4.3726,-4.3706,-4.3752,-4.3864,-4.3705,-4.3705,-4.3734,-4.3985,-4.4014,-4.4036,-4.3841,-4.3845,-4.3847,-4.3983,0,-4.3517,-4.362,-4.3599,-4.37,-4.3745,-4.3698,-4.3751,-4.3768,-4.3764,-4.3802,-4.3798,-4.3842,-4.379,-4.3801,-4.3844,-4.3841,-4.3914,-4.3832,-4.3886,-4.3889,-4.3882,-4.4059,-4.409,-4.4218,-4.4,-4.4003,-4.4005,0,-4.3684,-4.3713,-4.3819,-4.3831,-4.3849,-4.3896,-4.3929,-4.3966,-4.3985,-4.3979,-4.4002,-4.3973,-4.4034,-4.3968,-4.4051,-4.3995,-4.4017,-4.402,-4.4024,-4.4027,-4.3953,-4.4066,-4.4258,-4.4277,-4.4032,-4.403,-4.4028,0,-4.3807,-4.3874,-4.3946,-4.3959,-4.3974,-4.4009,-4.4017,-4.4031,-4.4055,-4.4085,-4.41,-4.4136,-4.4155,-4.4184,-4.4167,-4.412,-4.4253,-4.4185,-4.4249,-4.425,-4.4277,-4.4276,-4.4475,-4.4294,-4.4294,-4.4294,-4.4293,0,-4.3956,-4.4022,-4.4002,-4.4046,-4.412,-4.4095,-4.4169,-4.4171,-4.4186,-4.423,-4.4192,-4.4234,-4.421,-4.425,-4.4238,-4.4308,-4.4318,-4.4315,-4.431,-4.4317,-4.4317,-4.4329,-4.432,-4.4299,-4.4298,-4.4297,-4.4296,0,-4.4105,-4.4094,-4.4169,-4.4179,-4.4182,-4.4236,-4.4244,-4.4286,-4.4281,-4.4337,-4.4349,-4.4341,-4.4387,-4.4374,-4.4423,-4.4415,-4.4504,-4.4489,-4.4498,-4.4494,-4.4558,-4.4552,-4.4771,-4.4798,-4.4601,-4.4603,-4.4605,0,-4.4199,-4.4249,-4.4264,-4.4292,-4.4303,-4.4347,-4.4372,-4.4351,-4.4378,-4.4404,-4.4443,-4.4486,-4.4519,-4.4595,-4.4594,-4.4632,-4.4617,-4.4691,-4.4622,-4.4628,-4.4617,-4.4613,-4.4618,-4.4704,-4.4706,-4.4708,-4.471,0,-4.4368,-4.436,-4.4398,-4.4434,-4.4465,-4.4493,-4.4517,-4.4541,-4.4522,-4.4555,-4.4602,-4.4628,-4.468,-4.4723,-4.4759,-4.4767,-4.4736,-4.4732,-4.4749,-4.4755,-4.4758,-4.4757,-4.4534,-4.4726,-4.4725,-4.4723,-4.4723,-4.4722,-4.4491,-4.4534,-4.4552,-4.4595,-4.4612,-4.4636,-4.4675,-4.4676,-4.4715,-4.4756,-4.4742,-4.4796,-4.4815,-4.4859,-4.4872,-4.4914,-4.4886,-4.491,-4.4916,-4.4922,-4.493,-4.4753,-4.4921,-4.492,-4.492,-4.492,-4.4919,0,-4.4657,-4.4667,-4.4707,-4.4743,-4.4777,-4.4746,-4.4772,-4.4803,-4.4851,-4.4872,-4.4906,-4.4961,-4.5003,-4.5006,-4.5046,-4.508,-4.5066,-4.5091,-4.5087,-4.509,-4.4953,-4.4934,-4.5101,-4.5101,-4.5101,-4.5101,-4.5101,-4.5101,-4.4747,-4.4818,-4.4813,-4.4893,-4.4902,-4.4955,-4.4973,-4.4995,-4.5011,-4.5074,-4.511,-4.5112,-4.5126,-4.5167,-4.5205,-4.5205,-4.5221,-4.5251,-4.5245,-4.5117,-4.5099,-4.5082,-4.5064,-4.5255,-4.5255,-4.5377,-4.5379,-4.5379]},{"header":{"parameterUnit":"m.s-1","parameterCategory":1,"la1":30.2991,"la2":30.254,"lo1":-89.0895,"lo2":-89.0444,"dy":0.0017,"dx":0.0017,"nx":28,"ny":28,"refTime":"2024-03-02T09:00:00:Z","depth":0,"parameterNumber":3,"parameterNumberName":"V-component_of_WINDS"},"data":[0,0,0,0,0,0,0,0,0,0,0,0,0,0,0,0,0,0,0,0,0,0,0,0,0,0,0,0,0,0,0,0,0,0,0,0,0,0,0,0,0,0,0,0,0,0,0,0,0,0,0,0,0,0,0,0,0,0,0.6177,0.6177,0,0.617,0.617,0.617,0.6189,0.619,0.619,0.6191,0.6182,0.6181,0.618,0,0,0,0,0,0,0,0,0,0,0,0,0,0.6206,0.6205,0.6177,0.6177,0.6177,0.617,0.617,0.617,0.6189,0.619,0.619,0.6191,0.6182,0.6181,0.618,0,0,0,0,0,0,0,0,0,0,0,0,0,0.6196,0.6205,0.6177,0.6186,0.6186,0.617,0.617,0.617,0.6189,0.619,0.619,0.6191,0.6182,0.6181,0.618,0.6155,0,0,0.6177,0.6176,0,0,0,0,0,0,0,0,0.6196,0.6195,0.6184,0.6185,0.6186,0.6181,0.6177,0.6165,0.6188,0.6188,0.6191,0.6192,0.6181,0.618,0.6177,0.6155,0.6155,0.6176,0.6176,0.6175,0.6175,0,0,0,0,0,0,0,0.6197,0.6195,0.6174,0.6184,0.6185,0.619,0.6189,0.6175,0.6179,0.6188,0.6189,0.6188,0.6181,0.6178,0.6177,0.6154,0.6177,0.6175,0.6175,0.6174,0.6114,0.6113,0,0,0,0,0,0,0.6197,0.6195,0.6175,0.6174,0.6193,0.6188,0.6188,0.6182,0.618,0.618,0.6187,0.6189,0.6179,0.6178,0.6176,0.6149,0.6175,0.6174,0.6174,0.6115,0.6114,0.6113,0,0,0,0,0,0,0.6197,0.6195,0.6175,0.6185,0.6183,0.6187,0.618,0.6181,0.6178,0.6179,0.618,0.6183,0.618,0.6178,0.6161,0.6148,0.6174,0.6173,0.6116,0.6115,0.6113,0.6092,0,0,0,0,0,0,0.6198,0.6195,0.6185,0.6185,0.6182,0.616,0.6179,0.6181,0.6176,0.6178,0.6175,0.6176,0.618,0.6163,0.616,0.6147,0.6172,0.6117,0.6115,0.6114,0.6094,0.609,0.6087,0,0,0,0,0,0.6199,0.6179,0.6185,0.6182,0.6171,0.6159,0.6158,0.6164,0.6175,0.6165,0.6167,0.6176,0.615,0.6161,0.6158,0.6145,0.6118,0.6116,0.6114,0.6095,0.6091,0.6087,0,0,0,0,0,0,0.6176,0.6179,0.6185,0.6164,0.6162,0.6162,0.615,0.6159,0.6152,0.6154,0.6162,0.6161,0.6143,0.6142,0.6154,0.6122,0.6136,0.6133,0.6123,0.6118,0.6115,0.6116,0.6171,0,0,0,0,0,0.6169,0.6159,0.6162,0.6143,0.6141,0.6146,0.6141,0.6147,0.6144,0.6142,0.6142,0.6139,0.613,0.6124,0.6116,0.6094,0.6094,0.6083,0.608,0.6077,0.6075,0.6064,0.606,0.6106,0.6106,0.6106,0,0,0.6153,0.6154,0.6147,0.6139,0.6137,0.6127,0.6145,0.6133,0.6126,0.614,0.6125,0.6125,0.6121,0.6102,0.6094,0.6101,0.6062,0.6074,0.6072,0.6071,0.6062,0.6057,0.6053,0.6105,0.6105,0.6105,0,0,0.612,0.6119,0.6104,0.6103,0.6101,0.6104,0.6101,0.6101,0.6102,0.6086,0.6097,0.6089,0.6073,0.6071,0.6068,0.6036,0.6045,0.6033,0.6015,0.6005,0.6001,0.5998,0.5988,0.5984,0.6031,0.6031,0.6031,0,0.6101,0.6087,0.6095,0.6084,0.608,0.6094,0.6079,0.6077,0.6072,0.6069,0.6078,0.606,0.6059,0.604,0.6032,0.6029,0.6026,0.6034,0.6001,0.5998,0.5995,0.5986,0.5982,0.603,0.603,0.603,0.603,0,0.6064,0.6054,0.6043,0.6039,0.6034,0.6021,0.6028,0.6022,0.6028,0.6031,0.6016,0.6015,0.6008,0.6004,0.6009,0.5986,0.5991,0.6,0.6015,0.5989,0.5981,0.5977,0.6028,0.6028,0.6029,0.6029,0,0,0.6016,0.6018,0.6014,0.6013,0.6013,0.6005,0.5993,0.5987,0.5983,0.5979,0.5969,0.5957,0.5966,0.5963,0.5968,0.5959,0.5936,0.597,0.597,0.5964,0.5912,0.5905,0.5901,0.5941,0.5941,0.594,0.5912,0,0.5984,0.5964,0.5972,0.5951,0.5943,0.5957,0.5947,0.5945,0.5948,0.5941,0.5944,0.5936,0.5948,0.5946,0.5938,0.594,0.5925,0.5942,0.5933,0.5932,0.5934,0.5896,0.5889,0.5863,0.5909,0.5908,0.5908,0,0.5944,0.5941,0.592,0.5923,0.5919,0.591,0.5906,0.5899,0.5899,0.5901,0.5898,0.5906,0.5895,0.591,0.5895,0.5906,0.5903,0.5904,0.5903,0.5902,0.5919,0.5895,0.5854,0.5851,0.5902,0.5903,0.5903,0,0.5912,0.5902,0.5889,0.5888,0.589,0.5884,0.5884,0.5884,0.5881,0.5877,0.5875,0.587,0.5867,0.5863,0.587,0.588,0.5854,0.5869,0.5857,0.5857,0.5851,0.5851,0.5809,0.5848,0.5848,0.5848,0.5848,0,0.5877,0.5863,0.5875,0.5867,0.5853,0.5862,0.5848,0.585,0.5851,0.5843,0.5854,0.5847,0.5856,0.585,0.5854,0.5842,0.584,0.5843,0.5844,0.5842,0.5842,0.584,0.5842,0.5847,0.5847,0.5847,0.5847,0,0.5838,0.5846,0.5832,0.5836,0.5837,0.5827,0.583,0.5823,0.5827,0.5818,0.5816,0.5823,0.5816,0.5822,0.5815,0.5819,0.5803,0.5806,0.5803,0.5805,0.5792,0.5793,0.5748,0.5743,0.5784,0.5783,0.5783,0,0.5815,0.5806,0.581,0.5806,0.5807,0.58,0.5798,0.5807,0.5803,0.5803,0.5796,0.579,0.5787,0.5775,0.5779,0.5775,0.5779,0.5763,0.5778,0.5777,0.578,0.5781,0.578,0.576,0.576,0.5759,0.5759,0,0.5774,0.5779,0.5775,0.5772,0.5769,0.5767,0.5765,0.5762,0.5772,0.5767,0.5761,0.5758,0.5753,0.5747,0.5744,0.5745,0.5754,0.5754,0.5752,0.5749,0.5748,0.575,0.5796,0.5755,0.5756,0.5756,0.5756,0.5756,0.5744,0.5737,0.5739,0.5734,0.5735,0.5734,0.5728,0.5732,0.5728,0.5724,0.573,0.5723,0.5724,0.5721,0.572,0.5715,0.5721,0.5717,0.5716,0.5715,0.5713,0.5749,0.5714,0.5714,0.5714,0.5715,0.5715,0,0.5704,0.5707,0.5702,0.5701,0.5698,0.5708,0.5707,0.5704,0.5698,0.5698,0.5695,0.5689,0.5684,0.5688,0.5685,0.568,0.5684,0.5678,0.5679,0.5679,0.5707,0.5711,0.5675,0.5675,0.5675,0.5675,0.5675,0.5675,0.5683,0.5672,0.5677,0.5667,0.567,0.5663,0.5663,0.5662,0.5663,0.5656,0.5653,0.5656,0.5658,0.5655,0.5651,0.5653,0.5651,0.5645,0.5647,0.5673,0.5677,0.5681,0.5684,0.5644,0.5644,0.562,0.562,0.562]}]]